Regional Weather Roundup
Issued by NWS

Home | Current Version | Previous Version | Text Only | Print | Product List | Glossary On
Versions: 1 2 3 4 5 6 7 8 9 10 11 12 13 14 15 16 17 18 19 20 21 22 23 24 25 26 27 28 29 30 31 32 33 34 35 36 37 38 39 40 41 42 43 44 45 46 47 48 49 50
000
ASUS45 KCYS 241510
RWRWY

WYOMING REGIONAL WEATHER ROUNDUP
NATIONAL WEATHER SERVICE CHEYENNE WY
900 AM MDT SUN MAY 24 2015

NOTE:  "FAIR" INDICATES FEW OR NO CLOUDS BELOW 12,000 FEET
WITH NO SIGNIFICANT WEATHER AND/OR OBSTRUCTIONS TO VISIBILITY.

WYZ001-241600-
YELLOWSTONE NATIONAL PARK

CITY           SKY/WX    TMP DP  RH WIND       PRES   REMARKS
LK YELLOWSTONE   N/A     43  31  62 VRB6      30.06F
W YELLOWSTONE  NOT AVBL

$$
WYZ002>013-054>058-071-098>099-241600-
NORTHERN WYOMING

CITY           SKY/WX    TMP DP  RH WIND       PRES   REMARKS
JACKSON        MOSUNNY   46  39  76 VRB5      29.99F
CODY           CLOUDY    46  39  76 N12       30.03S
GREYBULL       CLOUDY    53  45  74 NW18G26   29.93F
WORLAND        LGT RAIN  50  46  86 N8        29.94F
SHERIDAN       RAIN      49  47  93 N12       30.00S FOG
BUFFALO        RAIN      47  46  97 N21       29.98S FOG
GILLETTE       LGT RAIN  50  48  93 NE13      29.94F
HULETT         CLOUDY    52  50  93 NE14G22   29.97R FOG
NEWCASTLE      FAIR      54  46  76 NE8       29.91F

$$
WYZ014>020-022>026-101>103-241600-
CENTRAL WYOMING

CITY           SKY/WX    TMP DP  RH WIND       PRES   REMARKS
BIG PINEY      PTSUNNY   43  38  82 E3        29.97F
PINEDALE       FAIR      43  36  75 NW15      29.97S
DUBOIS         CLOUDY    39  36  87 NW3       29.99F
LANDER         LGT RAIN  43  40  89 NW6       29.97S FOG
RIVERTON       RAIN      44  41  89 N9        29.97F FOG
CASPER         CLOUDY    47  43  86 VRB3      29.91S
DOUGLAS        CLOUDY    48  47  96 W7        29.90S FOG

$$
WYZ021-027>030-104>119-241600-
SOUTHERN WYOMING

CITY           SKY/WX    TMP DP  RH WIND       PRES   REMARKS
EVANSTON       CLOUDY    41  38  89 SW6       30.01R
KEMMERER       PTSUNNY   43  37  81 SW8       29.98F
FORT BRIDGER   CLOUDY    46  43  87 NW12      30.02S
ROCK SPRINGS   LGT SNOW  35  33  92 S5        29.98S FOG     WCI  31
DIXON          LGT SNOW  33  32  96 CALM      29.99S VSB 1
RAWLINS        LGT RAIN  37  35  92 CALM      29.94S
SARATOGA       DRIZZLE   36  36 100 NW5       29.95S WCI  32
LARAMIE        FAIR      46  35  65 SW6       29.92S
CHEYENNE       FAIR      51  40  65 CALM      29.91R
TORRINGTON     FAIR      56  50  80 CALM      29.87S
PINE BLUFFS    FAIR      50  45  81 N5        29.91R

$$


USA.gov is the U.S. government's official web portal to all federal, state and local government web resources and services.